Le Mars, IA

1:48 PM CDT on August 16, 2017 (GMT -0500)
Le Mars Municipal

Weather History for KLRJ - March, 2014

Change the Weather History Date:

Saturday, March 1, 2014

  Actual Average Record
Temperature  
Mean Temperature 5 °F -  
Max Temperature 12 °F 43 °F 63 °F (1992)
Min Temperature -2 °F 20 °F -7 °F (1978)
Degree Days  
Heating Degree Days 60    
Moisture  
Dew Point -5 °F    
Average Humidity 76    
Maximum Humidity 85    
Minimum Humidity 66    
Precipitation  
Precipitation 0.00 in - - ()
Sea Level Pressure  
Sea Level Pressure 30.42 in    
Wind  
Wind Speed 14 mph (North)    
Max Wind Speed 17 mph    
Max Gust Speed 24 mph    
Visibility 5 miles    
Events Snow    
Averages and records for this station are not official NWS values.
T = Trace of Precipitation, MM = Missing Value Source: NWS Daily Summary

Daily Weather History Graph

Daily Weather History Graph

Search for Another Location

Airport or City:

Trip Planner

Search our weather history database for the weather conditions in past years. The results will help you decide how hot, cold, wet, or windy it might be!

Date:

Astronomy

Mar. 01, 2014 Rise Set
Actual Time 7:00 AM CST 6:14 PM CST
Civil Twilight 6:32 AM CST 6:42 PM CST
Nautical Twilight 5:59 AM CST 7:15 PM CST
Astronomical Twilight 5:26 AM CST 7:48 PM CST
Moon 6:53 AM CST (3/1) 7:05 PM CST (3/1)
Length of Visible Light 12h 10m
Length of Day
11h 13m
New Moon, 0% of the Moon is Illuminated
Mar 1
New Moon
Mar 8
First Quarter
Mar 16
Full
Mar 23
Last Quarter
Mar 30
New

Hourly Weather History & Observations

Time (CST) Temp. Windchill Dew Point Humidity Pressure Visibility Wind Dir Wind Speed Gust Speed Precip Events Conditions
12:15 AM 12.2 °F -3.7 °F 5.0 °F 73% 30.21 in 10.0 mi North 15.0 mph 21.9 mph N/A   Overcast
12:35 AM 12.2 °F -4.8 °F 5.0 °F 73% 30.20 in 7.0 mi North 17.3 mph - N/A Snow Light Snow
12:55 AM 10.4 °F -6.0 °F 5.0 °F 79% 30.23 in 6.0 mi North 15.0 mph 23.0 mph N/A   Haze
1:15 AM 10.4 °F -6.6 °F 5.0 °F 79% 30.26 in 3.0 mi North 16.1 mph - N/A Snow Light Snow
1:35 AM 10.4 °F -5.4 °F 5.0 °F 79% 30.27 in 5.0 mi North 13.8 mph 21.9 mph N/A Snow Light Snow
1:55 AM 10.4 °F -5.4 °F 5.0 °F 79% 30.27 in 5.0 mi North 13.8 mph - N/A Snow Light Snow
2:15 AM 8.6 °F -9.5 °F 5.0 °F 85% 30.26 in 5.0 mi North 17.3 mph - N/A   Haze
2:35 AM 8.6 °F -7.7 °F 3.2 °F 79% 30.27 in 3.0 mi North 13.8 mph 20.7 mph N/A Snow Light Snow
2:55 AM 8.6 °F -8.3 °F 3.2 °F 79% 30.27 in 4.0 mi North 15.0 mph 20.7 mph N/A Snow Light Snow
3:15 AM 6.8 °F -10.0 °F 3.2 °F 85% 30.25 in 5.0 mi North 13.8 mph 24.2 mph N/A Snow Light Snow
3:35 AM 6.8 °F -11.8 °F 1.4 °F 79% 30.26 in 4.0 mi North 17.3 mph 24.2 mph N/A   Haze
3:55 AM 6.8 °F -11.3 °F 1.4 °F 79% 30.27 in 2.0 mi North 16.1 mph - N/A Snow Light Snow
4:15 AM 5.0 °F -14.2 °F -0.4 °F 78% 30.29 in 4.0 mi North 17.3 mph 24.2 mph N/A   Haze
4:35 AM 5.0 °F -14.2 °F -0.4 °F 78% 30.30 in 2.0 mi North 17.3 mph - N/A Snow Light Snow
4:55 AM 5.0 °F -13.6 °F -0.4 °F 78% 30.30 in 1.8 mi NNE 16.1 mph 21.9 mph N/A Snow Light Snow
5:15 AM 3.2 °F -15.9 °F -2.2 °F 78% 30.31 in 2.5 mi NNE 16.1 mph - N/A Snow Light Snow
5:35 AM 3.2 °F -14.6 °F -2.2 °F 78% 30.33 in 3.0 mi North 13.8 mph - N/A Snow Light Snow
5:50 AM 3.2 °F -13.1 °F -0.4 °F 85% 30.36 in 2.0 mi North 11.5 mph - N/A Snow Light Snow
6:15 AM 3.2 °F -14.6 °F -2.2 °F 78% 30.34 in 3.0 mi NNE 13.8 mph - N/A Snow Light Snow
6:35 AM 3.2 °F -14.6 °F -2.2 °F 78% 30.32 in 2.5 mi NNE 13.8 mph 21.9 mph N/A Snow Light Snow
6:55 AM 1.4 °F -16.9 °F -4.0 °F 78% 30.34 in 2.5 mi North 13.8 mph 21.9 mph N/A Snow Light Snow
7:15 AM 1.4 °F -16.1 °F -4.0 °F 78% 30.36 in 1.8 mi NNE 12.7 mph 21.9 mph N/A Snow Light Snow
7:35 AM 1.4 °F -15.3 °F -4.0 °F 78% 30.38 in 1.5 mi NNE 11.5 mph 18.4 mph N/A Snow Light Snow
7:55 AM 1.4 °F -17.6 °F -4.0 °F 78% 30.39 in 1.5 mi North 15.0 mph - N/A Snow Light Snow
8:15 AM 1.4 °F -18.2 °F -4.0 °F 78% 30.42 in 0.8 mi NNE 16.1 mph - N/A Snow Light Snow
8:35 AM 1.4 °F -14.5 °F -4.0 °F 78% 30.45 in 1.0 mi NNE 10.4 mph - N/A Snow Light Snow
8:55 AM -0.4 °F -18.4 °F -4.0 °F 85% 30.46 in 0.8 mi NNE 12.7 mph - N/A Snow Light Snow
9:15 AM -0.4 °F -16.7 °F -5.8 °F 78% 30.46 in 0.8 mi North 10.4 mph 17.3 mph N/A Snow Light Snow
9:35 AM -0.4 °F -16.7 °F -4.0 °F 85% 30.46 in 0.5 mi North 10.4 mph 16.1 mph N/A Snow Light Snow
9:55 AM -0.4 °F -19.2 °F -5.8 °F 78% 30.46 in 0.8 mi North 13.8 mph - N/A Snow Light Snow
10:15 AM -0.4 °F -19.9 °F -5.8 °F 78% 30.47 in 0.5 mi NNE 15.0 mph - N/A Snow Light Snow
10:30 AM -0.4 °F -18.4 °F -5.8 °F 78% 30.47 in 0.8 mi NNE 12.7 mph 19.6 mph N/A Snow Light Snow
10:55 AM -0.4 °F -19.2 °F -5.8 °F 78% 30.49 in 1.8 mi North 13.8 mph - N/A Snow Light Snow
11:15 AM -0.4 °F -17.6 °F -5.8 °F 78% 30.49 in 2.0 mi NNE 11.5 mph - N/A Snow Light Snow
11:35 AM -0.4 °F -19.2 °F -7.6 °F 72% 30.47 in 6.0 mi North 13.8 mph - N/A Snow Light Snow
11:55 AM -0.4 °F -18.4 °F -7.6 °F 72% 30.47 in 7.0 mi North 12.7 mph 18.4 mph N/A   Scattered Clouds
12:15 PM -0.4 °F -16.7 °F -7.6 °F 72% 30.47 in 1.2 mi NNE 10.4 mph - N/A Snow Light Snow
12:35 PM -0.4 °F -16.7 °F -5.8 °F 78% 30.47 in 3.0 mi NNE 10.4 mph - N/A Snow Light Snow
12:55 PM -0.4 °F -18.4 °F -5.8 °F 78% 30.47 in 2.0 mi North 12.7 mph - N/A   Haze
1:15 PM -0.4 °F -21.2 °F -5.8 °F 78% 30.45 in 1.2 mi North 17.3 mph - N/A Snow Light Snow
1:35 PM -0.4 °F -18.4 °F -7.6 °F 72% 30.45 in 2.0 mi North 12.7 mph - N/A Snow Light Snow
1:55 PM -0.4 °F -19.2 °F -7.6 °F 72% 30.47 in 3.0 mi North 13.8 mph - N/A Snow Light Snow
2:15 PM -0.4 °F -17.6 °F -5.8 °F 78% 30.48 in 1.2 mi North 11.5 mph - N/A Snow Light Snow
2:35 PM -0.4 °F -16.7 °F -5.8 °F 78% 30.45 in 1.0 mi NNE 10.4 mph - N/A Snow Light Snow
2:55 PM -0.4 °F -16.7 °F -5.8 °F 78% 30.45 in 1.0 mi North 10.4 mph - N/A Snow Light Snow
3:10 PM -0.4 °F -15.7 °F -5.8 °F 78% 30.47 in 1.2 mi North 9.2 mph 15.0 mph N/A Snow Light Snow
3:35 PM -0.4 °F -17.6 °F -5.8 °F 78% 30.47 in 1.8 mi North 11.5 mph - N/A Snow Light Snow
3:55 PM -0.4 °F -17.6 °F -5.8 °F 78% 30.47 in 8.0 mi North 11.5 mph 17.3 mph N/A   Overcast
4:15 PM -0.4 °F -17.6 °F -5.8 °F 78% 30.48 in 10.0 mi North 11.5 mph - N/A   Overcast
4:35 PM -0.4 °F -18.4 °F -5.8 °F 78% 30.46 in 6.0 mi NNE 12.7 mph - N/A   Haze
4:55 PM -0.4 °F -20.5 °F -9.4 °F 66% 30.48 in 10.0 mi North 16.1 mph - N/A   Mostly Cloudy
5:15 PM -0.4 °F -20.5 °F -7.6 °F 72% 30.48 in 5.0 mi North 16.1 mph - N/A Snow Light Snow
5:35 PM -0.4 °F -19.2 °F -7.6 °F 72% 30.49 in 2.5 mi North 13.8 mph - N/A Snow Light Snow
5:55 PM -0.4 °F -19.2 °F -7.6 °F 72% 30.48 in 9.0 mi North 13.8 mph - N/A   Overcast
6:15 PM -0.4 °F -18.4 °F -7.6 °F 72% 30.49 in 10.0 mi North 12.7 mph - N/A   Overcast
6:35 PM -0.4 °F -18.4 °F -7.6 °F 72% 30.47 in 10.0 mi North 12.7 mph - N/A   Overcast
6:55 PM -0.4 °F -18.4 °F -7.6 °F 72% 30.48 in 10.0 mi North 12.7 mph - N/A   Overcast
7:15 PM -0.4 °F -19.9 °F -7.6 °F 72% 30.50 in 10.0 mi North 15.0 mph - N/A   Overcast
7:35 PM -0.4 °F -19.9 °F -5.8 °F 78% 30.50 in 4.0 mi North 15.0 mph - N/A Snow Light Snow
7:55 PM -0.4 °F -19.9 °F -7.6 °F 72% 30.50 in 10.0 mi North 15.0 mph - N/A   Overcast
8:15 PM -0.4 °F -19.9 °F -7.6 °F 72% 30.50 in 10.0 mi North 15.0 mph - N/A   Overcast
8:35 PM -2.2 °F -22.2 °F -9.4 °F 71% 30.51 in 10.0 mi North 15.0 mph - N/A   Overcast
8:55 PM -2.2 °F -19.9 °F -9.4 °F 71% 30.52 in 10.0 mi North 11.5 mph - N/A   Overcast
9:15 PM -2.2 °F -20.7 °F -9.4 °F 71% 30.52 in 10.0 mi North 12.7 mph - N/A   Overcast
9:35 PM -2.2 °F -19.9 °F -9.4 °F 71% 30.53 in 10.0 mi North 11.5 mph - N/A   Overcast
9:55 PM -2.2 °F -20.7 °F -9.4 °F 71% 30.53 in 10.0 mi North 12.7 mph 18.4 mph N/A   Overcast
10:15 PM -2.2 °F -19.9 °F -11.2 °F 66% 30.55 in 10.0 mi NNW 11.5 mph 18.4 mph N/A   Overcast
10:35 PM -2.2 °F -19.9 °F -11.2 °F 66% 30.55 in 10.0 mi North 11.5 mph - N/A   Overcast
10:55 PM -2.2 °F -20.7 °F -11.2 °F 66% 30.55 in 10.0 mi North 12.7 mph - N/A   Overcast
11:15 PM -2.2 °F -19.9 °F -11.2 °F 66% 30.55 in 10.0 mi NNW 11.5 mph 17.3 mph N/A   Overcast
11:35 PM -2.2 °F -20.7 °F -9.4 °F 71% 30.55 in 10.0 mi NNW 12.7 mph - N/A   Overcast
11:55 PM -2.2 °F -21.5 °F -9.4 °F 71% 30.54 in 10.0 mi North 13.8 mph - N/A   Overcast